Home > Weather > Ivalo > Past weeks

Flag for Finland Past Weather in Ivalo, Finland — Yesterday and Last 2 Weeks

Now
63 °F

Sunny.


Feels Like: 63 °F
Forecast: 55 / 65 °F
Wind: 5 mph from Northeast

Location: Ivalo

Current Time: May 29, 2016 at 9:03:30 AM

Latest Report: May 29, 2016 at 8:20 AM


Visibility: 10 mi

Pressure: 30.27 "Hg

Humidity: 52%

Dew Point: 45 °F

Location of IvaloLocation

Past Weather in Ivalo — Graph

°F

Ivalo Temperature Yesterday

Maximum temperature yesterday: 75 °F (at 2:50 PM)
Minimum temperature yesterday: 48 °F (at 3:50 AM)
Average temperature yesterday: 64 °F

High & Low Weather Summary for the Past Weeks

 TemperatureHumidityPressure
High75 °F (May 28, 2:50 PM)100% (May 15, 7:20 AM)30.30 "Hg (May 15, 7:20 AM)
Low32 °F (May 16, 2:20 AM)22% (May 21, 7:20 PM)29.33 "Hg (May 17, 10:50 AM)
Average49 °F64%29.92 "Hg
* Reported May 14 7:20 AM — May 29 7:50 AM, Ivalo, Weather by CustomWeather, © 2016

Note: Actual official high and low records may vary slightly from our data, if they occured in-between our weather recording intervals... More about our weather records

Advertising

Ivalo Weather History for the Previous 24 Hours

Scroll right to see more
 ConditionsComfort  
Time TempWeatherWind HumidityBarometerVisibility
7:50 AM
Sun, May 29
63 °FSunny.5 mph56%30.27 "Hg10 mi
7:20 AM61 °FSunny.5 mph59%30.27 "Hg10 mi
6:50 AM59 °FSunny.No wind59%30.27 "Hg10 mi
6:20 AM55 °FSunny.No wind72%30.27 "Hg10 mi
5:50 AM55 °FSunny.No wind72%30.27 "Hg10 mi
5:20 AM54 °FSunny.No wind77%30.27 "Hg10 mi
4:50 AM52 °FSunny.No wind82%30.27 "Hg10 mi
4:20 AM50 °FSunny.No wind88%30.27 "Hg10 mi
3:50 AM50 °FSunny.No wind88%30.27 "Hg10 mi
3:20 AM52 °FSunny.No wind82%30.27 "Hg10 mi
2:50 AM52 °FSunny.No wind82%30.27 "Hg10 mi
2:20 AM54 °FSunny.No wind82%30.24 "Hg10 mi
1:50 AM55 °FSunny.1 mph72%30.24 "Hg10 mi
1:20 AM61 °FSunny.5 mph55%30.24 "Hg10 mi
12:50 AM61 °FSunny.1 mph55%30.24 "Hg10 mi
12:20 AM61 °FSunny.2 mph59%30.24 "Hg10 mi
11:50 PM
Sat, May 28
63 °FPassing clouds.5 mph59%30.24 "HgN/A
11:20 PM63 °FSunny.No wind59%30.24 "Hg10 mi
10:50 PM64 °FSunny.No wind56%30.24 "Hg10 mi
10:20 PM66 °FSunny.No wind49%30.24 "Hg10 mi
9:50 PM66 °FSunny.1 mph49%30.21 "Hg10 mi
9:20 PM68 °FSunny.7 mph46%30.21 "Hg10 mi
8:50 PM70 °FPassing clouds.8 mph38%30.21 "HgN/A
8:20 PM75 °FSunny.5 mph29%30.21 "Hg10 mi
7:50 PM73 °FPassing clouds.5 mph31%30.21 "HgN/A
7:20 PM75 °FPassing clouds.5 mph29%30.21 "HgN/A
6:50 PM73 °FPassing clouds.8 mph29%30.21 "HgN/A
6:20 PM73 °FPassing clouds.9 mph29%30.21 "HgN/A
5:50 PM75 °FPassing clouds.9 mph27%30.21 "HgN/A
5:20 PM75 °FPassing clouds.9 mph27%30.21 "HgN/A
4:50 PM73 °FPassing clouds.8 mph29%30.24 "HgN/A
4:20 PM73 °FPassing clouds.8 mph27%30.24 "HgN/A
3:50 PM73 °FPassing clouds.9 mph27%30.24 "HgN/A
3:20 PM73 °FPassing clouds.10 mph25%30.24 "HgN/A
2:50 PM75 °FPassing clouds.10 mph25%30.24 "HgN/A
2:20 PM73 °FPassing clouds.10 mph27%30.24 "HgN/A
1:50 PM73 °FPassing clouds.10 mph27%30.24 "HgN/A
1:20 PM72 °FPassing clouds.12 mph29%30.24 "HgN/A
12:50 PM72 °FPassing clouds.12 mph29%30.24 "HgN/A
11:50 AM70 °FPassing clouds.14 mph31%30.24 "HgN/A
11:20 AM70 °FPassing clouds.14 mph31%30.27 "HgN/A
10:50 AM68 °FPassing clouds.14 mph35%30.27 "HgN/A
10:20 AM68 °FPassing clouds.14 mph33%30.27 "HgN/A
9:50 AM66 °FPassing clouds.15 mph35%30.27 "HgN/A
9:20 AM64 °FSunny.10 mph37%30.27 "Hg10 mi
Weather by CustomWeather, © 2016

See weather overviewHow to use our weather pages